EWG16E LOWG-EDDH

Flight info

Callsign EWG16E
Flight time 1h 14m
Altitude 34000
Route MILGO6G/16C MILGO DCT LAMSI/N0443F380 L604 RUDNO M736 AKOSI DCT EMBOX M726 ERNUD M748 BUMIL/N0391F240 M748 RARUP RARUP3P
Aircraft A319/M-SDE2E3FGIJ1RWXYZ/EB1

Departure

Time 2026-04-26 19:42
Airport Graz Airport (LOWG)

Arrival

Time 2026-04-26 20:57
Airport Hamburg Helmut Schmidt Airport (EDDH)
Time Latitude Longitude Altitude Speed Heading
2026-04-26 18:56 46.99533 15.44339 1113 ft 0 kts 125°
2026-04-26 19:37 46.99530 15.44341 1088 ft 1 kts 136°
2026-04-26 19:37 46.99527 15.44339 1087 ft 0 kts 175°
2026-04-26 19:37 46.99520 15.44332 1087 ft 4 kts 212°
2026-04-26 19:38 46.99500 15.44281 1108 ft 6 kts 254°
2026-04-26 19:38 46.99547 15.44243 1109 ft 13 kts 349°
2026-04-26 19:38 46.99673 15.44209 1111 ft 23 kts 349°
2026-04-26 19:38 46.99841 15.44165 1116 ft 26 kts 349°
2026-04-26 19:39 47.00021 15.44115 1118 ft 27 kts 350°
2026-04-26 19:39 47.00196 15.44067 1121 ft 25 kts 349°
2026-04-26 19:39 47.00310 15.44011 1118 ft 14 kts 317°
2026-04-26 19:39 47.00366 15.43896 1120 ft 11 kts 304°
2026-04-26 19:40 47.00397 15.43829 1120 ft 4 kts 304°
2026-04-26 19:40 47.00404 15.43814 1118 ft 2 kts 304°
2026-04-26 19:40 47.00418 15.43782 1117 ft 6 kts 304°
2026-04-26 19:40 47.00434 15.43711 1125 ft 9 kts 271°
2026-04-26 19:41 47.00412 15.43624 1122 ft 10 kts 227°
2026-04-26 19:41 47.00362 15.43617 1126 ft 8 kts 169°
2026-04-26 19:41 47.00256 15.43646 1118 ft 33 kts 169°
2026-04-26 19:41 46.99997 15.43719 1116 ft 81 kts 169°
2026-04-26 19:42 46.98907 15.44020 1126 ft 155 kts 169°
2026-04-26 19:42 46.97870 15.44267 1809 ft 148 kts 169°
2026-04-26 19:42 46.96839 15.44530 2375 ft 154 kts 166°
2026-04-26 19:42 46.95705 15.44852 2709 ft 177 kts 165°
2026-04-26 19:43 46.94413 15.45233 3029 ft 202 kts 165°
2026-04-26 19:43 46.92980 15.45631 3714 ft 213 kts 170°
2026-04-26 19:43 46.91493 15.45395 4591 ft 220 kts 200°
2026-04-26 19:43 46.90232 15.44148 5498 ft 222 kts 229°
2026-04-26 19:44 46.89498 15.42177 6424 ft 223 kts 257°
2026-04-26 19:44 46.89473 15.39936 7315 ft 222 kts 284°
2026-04-26 19:44 46.90155 15.37935 8257 ft 222 kts 310°
2026-04-26 19:44 46.91396 15.36581 9231 ft 226 kts 332°
2026-04-26 19:45 46.92828 15.35611 10204 ft 226 kts 331°
2026-04-26 19:45 46.94264 15.34644 11053 ft 228 kts 332°
2026-04-26 19:45 46.95709 15.33672 11901 ft 230 kts 332°
2026-04-26 19:45 46.97146 15.32706 12740 ft 232 kts 333°
2026-04-26 19:46 46.98629 15.31701 13474 ft 242 kts 333°
2026-04-26 19:46 47.00225 15.30581 13821 ft 266 kts 332°
2026-04-26 19:46 47.01968 15.29340 14100 ft 290 kts 333°
2026-04-26 19:46 47.03849 15.27996 14303 ft 313 kts 333°
2026-04-26 19:47 47.05808 15.26346 14449 ft 336 kts 324°
2026-04-26 19:47 47.07128 15.24982 14531 ft 351 kts 323°
2026-04-26 19:47 47.09836 15.22085 14784 ft 373 kts 323°
2026-04-26 19:47 47.11944 15.19788 15277 ft 380 kts 322°
2026-04-26 19:48 47.14073 15.17458 15850 ft 385 kts 322°
2026-04-26 19:48 47.16244 15.15087 16435 ft 390 kts 322°
2026-04-26 19:48 47.18439 15.12703 17020 ft 395 kts 322°
2026-04-26 19:48 47.20664 15.10295 17601 ft 400 kts 322°
2026-04-26 19:49 47.22925 15.07853 18179 ft 405 kts 322°
2026-04-26 19:49 47.25202 15.05394 18738 ft 409 kts 322°
2026-04-26 19:49 47.27501 15.02903 19270 ft 411 kts 322°
2026-04-26 19:49 47.29820 15.00397 19790 ft 414 kts 322°
2026-04-26 19:50 47.32169 14.97870 20009 ft 424 kts 322°
2026-04-26 19:50 47.34569 14.95293 20364 ft 429 kts 322°
2026-04-26 19:50 47.37001 14.92682 20791 ft 432 kts 322°
2026-04-26 19:50 47.39448 14.90053 21211 ft 435 kts 322°
2026-04-26 19:51 47.41872 14.87446 21618 ft 438 kts 322°
2026-04-26 19:51 47.44341 14.84788 22017 ft 440 kts 322°
2026-04-26 19:51 47.46813 14.82113 22395 ft 443 kts 321°
2026-04-26 19:51 47.49301 14.79413 22801 ft 444 kts 321°
2026-04-26 19:52 47.51800 14.76701 23157 ft 447 kts 321°
2026-04-26 19:52 47.54319 14.73967 23516 ft 449 kts 321°
2026-04-26 19:52 47.56844 14.71224 23852 ft 451 kts 321°
2026-04-26 19:52 47.59376 14.68468 24138 ft 454 kts 321°
2026-04-26 19:53 47.61922 14.65690 24435 ft 455 kts 321°
2026-04-26 19:53 47.64485 14.62894 24745 ft 457 kts 321°
2026-04-26 19:53 47.67045 14.60100 25058 ft 458 kts 321°
2026-04-26 19:53 47.69615 14.57291 25349 ft 459 kts 321°
2026-04-26 19:54 47.72182 14.54483 25754 ft 457 kts 321°
2026-04-26 19:54 47.74739 14.51684 26247 ft 454 kts 321°
2026-04-26 19:54 47.77277 14.48900 26706 ft 453 kts 321°
2026-04-26 19:54 47.79810 14.46112 27092 ft 452 kts 320°
2026-04-26 19:55 47.82302 14.43360 27459 ft 452 kts 320°
2026-04-26 19:55 47.84855 14.40544 27881 ft 451 kts 320°
2026-04-26 19:55 47.87348 14.37797 28335 ft 450 kts 320°
2026-04-26 19:55 47.89860 14.35027 28818 ft 448 kts 320°
2026-04-26 19:56 47.92390 14.32230 29303 ft 447 kts 320°
2026-04-26 19:56 47.94854 14.29503 29782 ft 445 kts 320°
2026-04-26 19:56 47.97344 14.26747 30288 ft 444 kts 320°
2026-04-26 19:56 47.99815 14.24010 30734 ft 442 kts 320°
2026-04-26 19:57 48.02276 14.21278 31184 ft 440 kts 320°
2026-04-26 19:57 48.04725 14.18551 31634 ft 438 kts 320°
2026-04-26 19:57 48.07163 14.15830 32077 ft 437 kts 320°
2026-04-26 19:57 48.09606 14.13099 32468 ft 437 kts 320°
2026-04-26 19:58 48.12040 14.10376 32919 ft 436 kts 320°
2026-04-26 19:58 48.14465 14.07665 33396 ft 434 kts 320°
2026-04-26 19:58 48.16885 14.04958 33650 ft 432 kts 320°
2026-04-26 19:58 48.18473 14.03181 33817 ft 431 kts 320°
2026-04-26 19:59 48.20873 14.00494 34064 ft 430 kts 320°
2026-04-26 19:59 48.23264 13.97811 34223 ft 427 kts 320°
2026-04-26 19:59 48.28052 13.92417 34231 ft 432 kts 320°
2026-04-26 20:00 48.32856 13.86990 34233 ft 432 kts 320°
2026-04-26 20:00 48.37669 13.81548 34236 ft 433 kts 320°
2026-04-26 20:01 48.42466 13.76109 34233 ft 434 kts 320°
2026-04-26 20:01 48.47285 13.70642 34232 ft 434 kts 320°
2026-04-26 20:02 48.52101 13.65170 34247 ft 434 kts 320°
2026-04-26 20:02 48.56140 13.60560 34220 ft 435 kts 320°
2026-04-26 20:03 48.61771 13.54107 34204 ft 436 kts 320°
2026-04-26 20:03 48.66633 13.48561 34214 ft 438 kts 320°
2026-04-26 20:04 48.71484 13.43068 34211 ft 439 kts 320°
2026-04-26 20:04 48.76386 13.37508 34254 ft 440 kts 320°
2026-04-26 20:05 48.78844 13.34709 34530 ft 441 kts 320°
2026-04-26 20:05 48.81294 13.31913 34884 ft 440 kts 320°
2026-04-26 20:05 48.83738 13.29117 35248 ft 439 kts 320°
2026-04-26 20:05 48.86176 13.26321 35628 ft 438 kts 320°
2026-04-26 20:06 48.88544 13.23400 36003 ft 436 kts 314°
2026-04-26 20:06 48.90685 13.20169 36319 ft 435 kts 314°
2026-04-26 20:06 48.92835 13.16905 36664 ft 435 kts 314°
2026-04-26 20:06 48.94976 13.13651 37022 ft 434 kts 314°
2026-04-26 20:07 48.97109 13.10405 37382 ft 434 kts 314°
2026-04-26 20:07 48.99236 13.07155 37716 ft 433 kts 314°
2026-04-26 20:07 49.01356 13.03905 38073 ft 432 kts 314°
2026-04-26 20:07 49.03450 13.00690 38236 ft 432 kts 314°
2026-04-26 20:08 49.07677 12.94211 38250 ft 430 kts 314°
2026-04-26 20:08 49.11918 12.87700 38257 ft 430 kts 314°
2026-04-26 20:09 49.16101 12.81243 38247 ft 430 kts 314°
2026-04-26 20:09 49.20310 12.74750 38250 ft 430 kts 313°
2026-04-26 20:10 49.24515 12.68245 38245 ft 430 kts 313°
2026-04-26 20:10 49.28724 12.61716 38262 ft 430 kts 313°
2026-04-26 20:11 49.33196 12.55655 38250 ft 433 kts 329°
2026-04-26 20:11 49.35989 12.53931 38253 ft 437 kts 342°
2026-04-26 20:12 49.41900 12.51581 38258 ft 439 kts 343°
2026-04-26 20:12 49.47821 12.49262 38257 ft 439 kts 343°
2026-04-26 20:13 49.53700 12.46948 38261 ft 439 kts 343°
2026-04-26 20:13 49.59613 12.44580 38266 ft 439 kts 343°
2026-04-26 20:14 49.65530 12.42207 38251 ft 439 kts 343°
2026-04-26 20:14 49.71444 12.39836 38267 ft 439 kts 343°
2026-04-26 20:15 49.77366 12.37458 38274 ft 439 kts 343°
2026-04-26 20:15 49.83257 12.35105 38268 ft 437 kts 343°
2026-04-26 20:16 49.89151 12.32733 38269 ft 436 kts 343°
2026-04-26 20:16 49.95018 12.30347 38278 ft 435 kts 342°
2026-04-26 20:17 50.00880 12.27956 38285 ft 434 kts 343°
2026-04-26 20:17 50.06710 12.25595 38281 ft 434 kts 343°
2026-04-26 20:18 50.12554 12.23217 38279 ft 434 kts 342°
2026-04-26 20:18 50.18396 12.20824 38283 ft 434 kts 342°
2026-04-26 20:19 50.24200 12.18444 38310 ft 434 kts 342°
2026-04-26 20:19 50.30043 12.16049 38298 ft 435 kts 342°
2026-04-26 20:20 50.35901 12.13645 38297 ft 435 kts 342°
2026-04-26 20:20 50.41753 12.11220 38298 ft 435 kts 342°
2026-04-26 20:21 50.47605 12.08786 38299 ft 434 kts 342°
2026-04-26 20:21 50.53448 12.06365 38298 ft 434 kts 342°
2026-04-26 20:22 50.59296 12.03952 38297 ft 434 kts 342°
2026-04-26 20:22 50.65098 12.01526 38297 ft 434 kts 342°
2026-04-26 20:23 50.70979 11.99061 38297 ft 434 kts 342°
2026-04-26 20:23 50.76764 11.96631 38298 ft 433 kts 342°
2026-04-26 20:24 50.82636 11.94170 38297 ft 433 kts 342°
2026-04-26 20:24 50.88412 11.91748 38299 ft 433 kts 342°
2026-04-26 20:25 50.94237 11.89296 38298 ft 433 kts 342°
2026-04-26 20:25 51.00064 11.86827 38283 ft 432 kts 342°
2026-04-26 20:26 51.05873 11.84345 38301 ft 432 kts 342°
2026-04-26 20:26 51.11667 11.81879 38302 ft 431 kts 342°
2026-04-26 20:27 51.17472 11.79399 38303 ft 431 kts 342°
2026-04-26 20:27 51.23263 11.76915 38312 ft 431 kts 342°
2026-04-26 20:28 51.29052 11.74434 38301 ft 430 kts 342°
2026-04-26 20:28 51.34831 11.71959 38310 ft 430 kts 342°
2026-04-26 20:29 51.40609 11.69465 38302 ft 430 kts 342°
2026-04-26 20:29 51.46386 11.66964 38300 ft 430 kts 342°
2026-04-26 20:30 51.52116 11.64476 38303 ft 429 kts 342°
2026-04-26 20:30 51.57880 11.61969 38299 ft 429 kts 342°
2026-04-26 20:31 51.63674 11.59443 38308 ft 429 kts 342°
2026-04-26 20:31 51.69394 11.56939 38299 ft 429 kts 342°
2026-04-26 20:32 51.75152 11.54409 38302 ft 429 kts 342°
2026-04-26 20:32 51.80912 11.51887 38293 ft 429 kts 342°
2026-04-26 20:33 51.86664 11.49356 38296 ft 429 kts 342°
2026-04-26 20:33 51.92421 11.46817 38313 ft 429 kts 342°
2026-04-26 20:34 51.98176 11.44265 38304 ft 428 kts 342°
2026-04-26 20:34 52.03924 11.41707 38297 ft 428 kts 342°
2026-04-26 20:35 52.09668 11.39157 38295 ft 428 kts 342°
2026-04-26 20:35 52.15406 11.36599 38301 ft 427 kts 342°
2026-04-26 20:36 52.21136 11.34035 37920 ft 424 kts 342°
2026-04-26 20:36 52.23963 11.32771 37644 ft 417 kts 342°
2026-04-26 20:36 52.26744 11.31527 37146 ft 414 kts 342°
2026-04-26 20:36 52.29522 11.30284 36542 ft 414 kts 342°
2026-04-26 20:37 52.32306 11.29032 35892 ft 414 kts 342°
2026-04-26 20:37 52.35080 11.27781 35229 ft 415 kts 341°
2026-04-26 20:37 52.37871 11.26515 34549 ft 415 kts 341°
2026-04-26 20:37 52.40648 11.25249 33781 ft 416 kts 341°
2026-04-26 20:38 52.43455 11.23970 32900 ft 418 kts 341°
2026-04-26 20:38 52.46258 11.22692 31961 ft 422 kts 341°
2026-04-26 20:38 52.49090 11.21348 31002 ft 425 kts 339°
2026-04-26 20:38 52.51912 11.19789 29929 ft 429 kts 337°
2026-04-26 20:39 52.54694 11.18085 28421 ft 438 kts 336°
2026-04-26 20:39 52.56623 11.16833 27790 ft 444 kts 335°
2026-04-26 20:39 52.60454 11.14312 27410 ft 451 kts 335°
2026-04-26 20:39 52.63388 11.12410 27146 ft 453 kts 336°
2026-04-26 20:40 52.66332 11.10543 26722 ft 454 kts 336°
2026-04-26 20:40 52.69290 11.08697 26244 ft 455 kts 337°
2026-04-26 20:40 52.72261 11.06866 25758 ft 455 kts 337°
2026-04-26 20:40 52.75217 11.05057 25223 ft 452 kts 337°
2026-04-26 20:41 52.78168 11.03245 24622 ft 448 kts 337°
2026-04-26 20:41 52.81083 11.01441 24030 ft 447 kts 337°
2026-04-26 20:41 52.83986 10.99633 23365 ft 444 kts 337°
2026-04-26 20:41 52.86865 10.97832 22696 ft 441 kts 337°
2026-04-26 20:42 52.89719 10.96039 22031 ft 437 kts 337°
2026-04-26 20:42 52.91607 10.94850 21596 ft 434 kts 337°
2026-04-26 20:42 52.94416 10.93075 20952 ft 430 kts 337°
2026-04-26 20:42 52.97194 10.91317 20327 ft 427 kts 337°
2026-04-26 20:43 52.99969 10.89567 19758 ft 424 kts 337°
2026-04-26 20:43 53.02706 10.87842 19228 ft 421 kts 337°
2026-04-26 20:43 53.05436 10.86117 18705 ft 418 kts 338°
2026-04-26 20:43 53.08146 10.84409 18127 ft 415 kts 338°
2026-04-26 20:44 53.10832 10.82713 17545 ft 412 kts 338°
2026-04-26 20:44 53.13499 10.81026 16971 ft 408 kts 338°
2026-04-26 20:44 53.16145 10.79353 16406 ft 405 kts 338°
2026-04-26 20:44 53.18770 10.77685 15832 ft 402 kts 338°
2026-04-26 20:45 53.21370 10.76025 15289 ft 399 kts 338°
2026-04-26 20:45 53.23950 10.74377 14752 ft 395 kts 338°
2026-04-26 20:45 53.26511 10.72740 14233 ft 392 kts 338°
2026-04-26 20:45 53.29052 10.71114 13661 ft 388 kts 338°
2026-04-26 20:46 53.31530 10.69528 13087 ft 385 kts 338°
2026-04-26 20:46 53.34015 10.67932 12513 ft 382 kts 338°
2026-04-26 20:46 53.36507 10.66331 12049 ft 379 kts 338°
2026-04-26 20:46 53.38957 10.64759 11594 ft 377 kts 338°
2026-04-26 20:47 53.41396 10.63192 11152 ft 375 kts 338°
2026-04-26 20:47 53.42997 10.62160 10861 ft 370 kts 338°
2026-04-26 20:47 53.46127 10.60146 10278 ft 351 kts 339°
2026-04-26 20:47 53.48432 10.58659 9813 ft 355 kts 338°
2026-04-26 20:48 53.50728 10.57171 9330 ft 354 kts 338°
2026-04-26 20:48 53.53025 10.55683 8871 ft 353 kts 338°
2026-04-26 20:48 53.55300 10.54210 8399 ft 345 kts 338°
2026-04-26 20:48 53.57523 10.52774 7958 ft 339 kts 338°
2026-04-26 20:49 53.59721 10.51348 7532 ft 337 kts 338°
2026-04-26 20:49 53.61898 10.49931 7112 ft 335 kts 338°
2026-04-26 20:49 53.64071 10.48515 6689 ft 334 kts 338°
2026-04-26 20:49 53.66211 10.47117 6253 ft 333 kts 337°
2026-04-26 20:50 53.68362 10.45715 5813 ft 326 kts 337°
2026-04-26 20:50 53.70452 10.44361 5372 ft 316 kts 337°
2026-04-26 20:50 53.72469 10.43055 4964 ft 306 kts 337°
2026-04-26 20:50 53.74416 10.41783 4706 ft 294 kts 337°
2026-04-26 20:51 53.76275 10.40470 4435 ft 282 kts 329°
2026-04-26 20:51 53.77664 10.38287 4203 ft 268 kts 301°
2026-04-26 20:51 53.78224 10.35410 4058 ft 254 kts 272°
2026-04-26 20:51 53.78163 10.32486 3953 ft 242 kts 265°
2026-04-26 20:52 53.77892 10.29745 3871 ft 231 kts 250°
2026-04-26 20:52 53.77110 10.27501 3795 ft 222 kts 231°
2026-04-26 20:52 53.76132 10.25513 3716 ft 219 kts 231°
2026-04-26 20:52 53.75165 10.23532 3633 ft 219 kts 231°
2026-04-26 20:53 53.74197 10.21550 3385 ft 218 kts 231°
2026-04-26 20:53 53.73237 10.19588 3099 ft 216 kts 231°
2026-04-26 20:53 53.72290 10.17655 2809 ft 211 kts 231°
2026-04-26 20:53 53.71374 10.15784 2521 ft 202 kts 231°
2026-04-26 20:54 53.70498 10.13997 2256 ft 194 kts 231°
2026-04-26 20:54 53.69649 10.12267 2007 ft 186 kts 232°
2026-04-26 20:54 53.68857 10.10655 1750 ft 172 kts 232°
2026-04-26 20:54 53.68125 10.09164 1509 ft 157 kts 233°
2026-04-26 20:55 53.67453 10.07797 1278 ft 146 kts 233°
2026-04-26 20:55 53.66824 10.06498 1073 ft 141 kts 233°
2026-04-26 20:55 53.66201 10.05210 877 ft 142 kts 233°
2026-04-26 20:55 53.65570 10.03953 712 ft 139 kts 231°
2026-04-26 20:56 53.64959 10.02704 530 ft 137 kts 232°
2026-04-26 20:56 53.64359 10.01490 333 ft 134 kts 232°
2026-04-26 20:56 53.63764 10.00291 137 ft 133 kts 231°
2026-04-26 20:56 53.63195 9.99137 47 ft 118 kts 230°
2026-04-26 20:57 53.62843 9.98424 44 ft 36 kts 230°
2026-04-26 20:57 53.62749 9.98355 43 ft 16 kts 156°
2026-04-26 20:57 53.62681 9.98446 47 ft 10 kts 139°
2026-04-26 20:57 53.62689 9.98551 45 ft 12 kts 42°
2026-04-26 20:58 53.62752 9.98679 47 ft 16 kts 51°
2026-04-26 20:58 53.62833 9.98840 47 ft 20 kts 49°
2026-04-26 20:58 53.62921 9.99020 47 ft 19 kts 51°
2026-04-26 20:58 53.63003 9.99187 47 ft 16 kts 50°
2026-04-26 20:59 53.63057 9.99303 47 ft 11 kts 53°
2026-04-26 20:59 53.63081 9.99358 47 ft 0 kts 53°
2026-04-26 20:59 53.63096 9.99391 47 ft 9 kts 52°
2026-04-26 21:00 53.63147 9.99507 44 ft 15 kts 53°
2026-04-26 21:00 53.63215 9.99656 48 ft 14 kts 53°
2026-04-26 21:00 53.63190 9.99796 49 ft 17 kts 156°
2026-04-26 21:00 53.63076 9.99886 47 ft 18 kts 152°
2026-04-26 21:01 53.62973 9.99976 49 ft 16 kts 152°
2026-04-26 21:01 53.62893 10.00045 49 ft 9 kts 157°
2026-04-26 21:01 53.62820 10.00094 48 ft 13 kts 158°
2026-04-26 21:01 53.62737 10.00165 46 ft 14 kts 152°
2026-04-26 21:02 53.62670 10.00224 49 ft 8 kts 152°
2026-04-26 21:02 53.62658 10.00264 48 ft 6 kts 74°
2026-04-26 21:02 53.62681 10.00335 49 ft 5 kts 62°
2026-04-26 21:02 53.62686 10.00351 48 ft 0 kts 62°